Hourly Weather Roundup
Issued by NWS Central Illinois

Home | Current Version | Previous Version | Text Only | Print | Product List | Glossary On
Versions: 1 2 3 4 5 6 7 8 9 10 11 12 13 14 15 16 17 18 19 20 21 22 23 24 25 26 27 28 29 30 31 32 33 34 35 36 37 38 39 40 41 42 43 44 45 46 47 48 49 50
000
NZUS43 KILX 301410
HWRILX

AREA WEATHER ROUNDUP
NATIONAL WEATHER SERVICE, LINCOLN IL
900 AM CDT THU OCT 30 2014


CITY           SKY/WX    TMP DP  RH WIND       PRES   REMARKS
BLOOMINGTON    PTSUNNY   39  36  89 S7        30.15S WCI  34
CHAMPAIGN      SUNNY     42  37  82 S7        30.16S
DECATUR        MOSUNNY   42  36  79 S6        30.16S
FLORA          SUNNY     40  39  97 CALM      30.19S
GALESBURG      CLOUDY    39  36  88 S3        30.12S
JACKSONVILLE   PTSUNNY   46  38  76 S8        30.13F
LACON          PTSUNNY   38  35  88 CALM      30.13S
LAWRENCEVILLE  SUNNY     41  32  70 CALM      30.19S
LITCHFIELD     PTSUNNY   42  37  82 S7        30.16R
$$


CITY           SKY/WX    TMP DP  RH WIND       PRES   REMARKS
LINCOLN        MOSUNNY   38  37  94 S3        30.15S
MACOMB         CLOUDY    39  36  88 SE5       30.14S
MATTOON        SUNNY     42  37  82 S6        30.17R
MT CARMEL AP   SUNNY     43  41  93 CALM      30.19R
OLNEY-NOBLE AP SUNNY     41  37  87 CALM      30.19S
PARIS          SUNNY     40  38  96 CALM      30.17F
PEORIA         PTSUNNY   41  36  82 S6        30.14S
PONTIAC        PTSUNNY   37  35  92 SE3       30.16S
RANTOUL        MOSUNNY   40  36  84 SW3       30.16S
ROBINSON       SUNNY     40  40 100 CALM      30.19S
SPRINGFIELD    SUNNY     44  37  76 S8        30.15S
TAYLORVILLE    MOSUNNY   41  36  81 S7        30.16R
$$

...REGIONAL REPORTS...


CITY           SKY/WX    TMP DP  RH WIND       PRES   REMARKS
CHICAGO O`HARE PTSUNNY   39  33  79 SW3       30.14R
KANKAKEE       NOT AVBL
MOLINE         CLOUDY    40  34  79 CALM      30.11R
MOUNT VERNON   SUNNY     39  36  87 CALM      30.18F
PITTSFIELD     MOSUNNY   45  39  81 S7        30.13R
QUINCY         PTSUNNY   45  36  70 S9        30.10S
ROCKFORD       CLOUDY    36  32  85 CALM      30.14S
$$


CITY           SKY/WX    TMP DP  RH WIND       PRES   REMARKS
BURLINGTON     CLOUDY    43  36  76 SE5       30.10S
CEDAR RAPIDS   CLOUDY    41  37  86 SE6       30.08S
DES MOINES     MOSUNNY   45  36  70 SE12      30.03R
KIRKSVILLE     CLOUDY    45  39  79 S7        30.06S
OTTUMWA        CLOUDY    44  36  73 SE7       30.06S
ST LOUIS       PTSUNNY   48  38  68 SE9       30.14F
$$


CITY           SKY/WX    TMP DP  RH WIND       PRES   REMARKS
TERRE HAUTE    SUNNY     39  36  89 CALM      30.18S
EVANSVILLE     SUNNY     44  38  79 NE3       30.19S
INDIANAPOLIS   MOSUNNY   41  33  73 CALM      30.17S
LAFAYETTE      SUNNY     36  35  96 CALM      30.17F
MADISON        CLOUDY    40  35  83 CALM      30.10S
MILWAUKEE      PTSUNNY   39  32  76 W6        30.12R WCI  35
$$





USA.gov is the U.S. government's official web portal to all federal, state and local government web resources and services.